This is the latest recevied weather packets stored in our database for station/object N3LF. If no packets are shown the sender has not sent any weather packets the latest 10 day(s).
| Time | Temp. | Humidity | Pressure | Rain* | Wind** | Luminosity | Snow |
|---|---|---|---|---|---|---|---|
| 1777911812 | 24.44° C | 50% | 1015.2 hPa | 0 mm | - | 688 W/m² | - |
| 1777911509 | 23.89° C | 52% | 1015.3 hPa | 0 mm | - | 658 W/m² | - |
| 1777911206 | 24.44° C | 54% | 1015.5 hPa | 0 mm | - | 677 W/m² | - |
| 1777910903 | 23.89° C | 51% | 1015.4 hPa | 0 mm | - | 696 W/m² | - |
| 1777910600 | 23.89° C | 52% | 1015.5 hPa | 0 mm | - | 661 W/m² | - |
| 1777910297 | 23.89° C | 53% | 1015.6 hPa | 0 mm | - | 677 W/m² | - |
| 1777909994 | 23.33° C | 55% | 1015.5 hPa | 0 mm | - | 653 W/m² | - |
| 1777909691 | 23.33° C | 52% | 1015.6 hPa | 0 mm | - | 572 W/m² | - |
| 1777909388 | 22.78° C | 55% | 1015.6 hPa | 0 mm | - | 589 W/m² | - |
| 1777909086 | 23.33° C | 53% | 1015.6 hPa | 0 mm | - | 530 W/m² | - |
| 1777908784 | 23.33° C | 55% | 1015.6 hPa | 0 mm | - | 605 W/m² | - |
| 1777908480 | 23.33° C | 54% | 1015.8 hPa | 0 mm | - | 511 W/m² | - |
| 1777908177 | 22.78° C | 54% | 1015.6 hPa | 0 mm | - | 552 W/m² | - |
| 1777907874 | 22.78° C | 56% | 1015.8 hPa | 0 mm | - | 550 W/m² | - |
| 1777907569 | 22.22° C | 55% | 1015.7 hPa | 0 mm | - | 545 W/m² | - |
| 1777907265 | 22.22° C | 59% | 1015.8 hPa | 0 mm | - | 570 W/m² | - |
| 1777906962 | 21.67° C | 57% | 1015.7 hPa | 0 mm | - | 560 W/m² | - |
| 1777906660 | 21.67° C | 58% | 1015.6 hPa | 0 mm | - | 549 W/m² | - |
| 1777906356 | 21.67° C | 56% | 1015.7 hPa | 0 mm | - | 526 W/m² | - |
| 1777906052 | 21.67° C | 58% | 1015.8 hPa | 0 mm | - | 525 W/m² | - |
| 1777905749 | 21.67° C | 57% | 1015.6 hPa | 0 mm | - | 416 W/m² | - |
| 1777905446 | 21.11° C | 59% | 1015.8 hPa | 0 mm | - | 494 W/m² | - |
| 1777905144 | 21.11° C | 59% | 1015.7 hPa | 0 mm | - | 473 W/m² | - |
| 1777904840 | 20.56° C | 62% | 1015.9 hPa | 0 mm | - | 450 W/m² | - |
| 1777904538 | 20.56° C | 63% | 1015.9 hPa | 0 mm | - | 375 W/m² | - |
* Rain latest hour (hover to see other rain measurements)
** Current wind speed in m/s (hover to see current wind gust speed)